Year,Month,Day,Hour,Minute,Value (Times are PST for windspeed in km/hr)
2020,04,24,00,00,1.60
2020,04,24,00,01,2.40
2020,04,24,00,02,2.20
2020,04,24,00,03,3.00
2020,04,24,00,04,0.90
2020,04,24,00,05,0.80
2020,04,24,00,06,0.00
2020,04,24,00,07,0.00
2020,04,24,00,08,0.00
2020,04,24,00,09,0.00
2020,04,24,00,10,0.00
2020,04,24,00,11,0.00
2020,04,24,00,12,0.00
2020,04,24,00,13,0.00
2020,04,24,00,14,0.00
2020,04,24,00,15,0.00
2020,04,24,00,16,0.00
2020,04,24,00,17,0.00
2020,04,24,00,18,0.00
2020,04,24,00,19,1.60
2020,04,24,00,20,1.80
2020,04,24,00,21,1.10
2020,04,24,00,22,0.40
2020,04,24,00,23,0.00
2020,04,24,00,24,0.00
2020,04,24,00,25,0.00
2020,04,24,00,26,1.20
2020,04,24,00,27,1.40
2020,04,24,00,28,1.10
2020,04,24,00,29,1.30
2020,04,24,00,30,0.80
2020,04,24,00,31,0.20
2020,04,24,00,32,1.20
2020,04,24,00,33,1.60
2020,04,24,00,34,2.10
2020,04,24,00,35,1.70
2020,04,24,00,36,0.80
2020,04,24,00,37,2.30
2020,04,24,00,38,0.50
2020,04,24,00,39,0.00
2020,04,24,00,40,0.00
2020,04,24,00,41,0.00
2020,04,24,00,42,0.40
2020,04,24,00,43,0.50
2020,04,24,00,44,0.60
2020,04,24,00,45,0.50
2020,04,24,00,46,0.30
2020,04,24,00,47,0.00
2020,04,24,00,48,0.10
2020,04,24,00,49,0.20
2020,04,24,00,50,0.00
2020,04,24,00,51,0.00
2020,04,24,00,52,0.00
2020,04,24,00,53,0.00
2020,04,24,00,54,0.00
2020,04,24,00,55,0.00
2020,04,24,00,56,0.00
2020,04,24,00,57,0.00
2020,04,24,00,58,0.00
2020,04,24,00,59,0.00
2020,04,24,01,00,0.00
2020,04,24,01,01,0.00
2020,04,24,01,02,0.00
2020,04,24,01,03,0.00
2020,04,24,01,04,0.00
2020,04,24,01,05,0.00
2020,04,24,01,06,0.00
2020,04,24,01,07,0.00
2020,04,24,01,08,0.00
2020,04,24,01,09,0.00
2020,04,24,01,10,0.00
2020,04,24,01,11,1.10
2020,04,24,01,12,0.60
2020,04,24,01,13,0.00
2020,04,24,01,14,0.10
2020,04,24,01,15,0.00
2020,04,24,01,16,0.00
2020,04,24,01,17,0.00
2020,04,24,01,18,0.00
2020,04,24,01,19,0.00
2020,04,24,01,20,0.00
2020,04,24,01,21,0.00
2020,04,24,01,22,0.00
2020,04,24,01,23,0.00
2020,04,24,01,24,0.00
2020,04,24,01,25,0.00
2020,04,24,01,26,0.00
2020,04,24,01,27,0.00
2020,04,24,01,28,0.00
2020,04,24,01,29,0.00
2020,04,24,01,30,0.00
2020,04,24,01,31,0.00
2020,04,24,01,32,0.00
2020,04,24,01,33,1.40
2020,04,24,01,34,1.80
2020,04,24,01,35,2.30
2020,04,24,01,36,5.30
2020,04,24,01,37,5.20
2020,04,24,01,38,5.50
2020,04,24,01,39,6.50
2020,04,24,01,40,6.40
2020,04,24,01,41,2.30
2020,04,24,01,42,6.40
2020,04,24,01,43,6.40
2020,04,24,01,44,5.60
2020,04,24,01,45,6.40
2020,04,24,01,46,5.80
2020,04,24,01,47,5.20
2020,04,24,01,48,6.00
2020,04,24,01,49,4.90
2020,04,24,01,50,2.90
2020,04,24,01,51,4.20
2020,04,24,01,52,6.40
2020,04,24,01,53,7.20
2020,04,24,01,54,7.10
2020,04,24,01,55,5.30
2020,04,24,01,56,3.90
2020,04,24,01,57,5.10
2020,04,24,01,58,6.20
2020,04,24,01,59,4.10
2020,04,24,02,00,7.00
2020,04,24,02,01,5.50
2020,04,24,02,02,2.30
2020,04,24,02,03,2.00
2020,04,24,02,04,3.50
2020,04,24,02,05,4.30
2020,04,24,02,06,2.30
2020,04,24,02,07,0.90
2020,04,24,02,08,1.50
2020,04,24,02,09,1.10
2020,04,24,02,10,0.10
2020,04,24,02,11,1.50
2020,04,24,02,12,0.80
2020,04,24,02,13,1.10
2020,04,24,02,14,2.00
2020,04,24,02,15,3.10
2020,04,24,02,16,3.80
2020,04,24,02,17,3.10
2020,04,24,02,18,1.50
2020,04,24,02,19,0.20
2020,04,24,02,20,1.10
2020,04,24,02,21,0.00
2020,04,24,02,22,0.00
2020,04,24,02,23,0.20
2020,04,24,02,24,0.20
2020,04,24,02,25,1.50
2020,04,24,02,26,0.20
2020,04,24,02,27,0.00
2020,04,24,02,28,0.20
2020,04,24,02,29,0.00
2020,04,24,02,30,0.00
2020,04,24,02,31,0.60
2020,04,24,02,32,0.80
2020,04,24,02,33,2.40
2020,04,24,02,34,0.30
2020,04,24,02,35,0.20
2020,04,24,02,36,0.90
2020,04,24,02,37,0.20
2020,04,24,02,38,0.00
2020,04,24,02,39,0.00
2020,04,24,02,40,0.00
2020,04,24,02,41,0.10
2020,04,24,02,42,1.10
2020,04,24,02,43,2.00
2020,04,24,02,44,0.60
2020,04,24,02,45,0.50
2020,04,24,02,46,0.00
2020,04,24,02,47,1.20
2020,04,24,02,48,0.50
2020,04,24,02,49,1.10
2020,04,24,02,50,0.00
2020,04,24,02,51,1.00
2020,04,24,02,52,1.60
2020,04,24,02,53,3.30
2020,04,24,02,54,4.50
2020,04,24,02,55,1.30
2020,04,24,02,56,0.00
2020,04,24,02,57,0.00
2020,04,24,02,58,0.00
2020,04,24,02,59,0.90
2020,04,24,03,00,1.50
2020,04,24,03,01,2.20
2020,04,24,03,02,3.00
2020,04,24,03,03,1.90
2020,04,24,03,04,1.70
2020,04,24,03,05,1.50
2020,04,24,03,06,0.20
2020,04,24,03,07,0.00
2020,04,24,03,08,0.00
2020,04,24,03,09,0.70
2020,04,24,03,10,1.20
2020,04,24,03,11,1.20
2020,04,24,03,12,1.50
2020,04,24,03,13,0.10
2020,04,24,03,14,0.00
2020,04,24,03,15,0.70
2020,04,24,03,16,1.20
2020,04,24,03,17,0.20
2020,04,24,03,18,0.00
2020,04,24,03,19,0.00
2020,04,24,03,20,0.90
2020,04,24,03,21,1.40
2020,04,24,03,22,1.20
2020,04,24,03,23,0.20
2020,04,24,03,24,0.50
2020,04,24,03,25,1.60
2020,04,24,03,26,0.20
2020,04,24,03,27,0.70
2020,04,24,03,28,0.60
2020,04,24,03,29,0.20
2020,04,24,03,30,0.00
2020,04,24,03,31,0.00
2020,04,24,03,32,0.20
2020,04,24,03,33,0.00
2020,04,24,03,34,0.00
2020,04,24,03,35,0.00
2020,04,24,03,36,0.00
2020,04,24,03,37,0.00
2020,04,24,03,38,2.60
2020,04,24,03,39,1.50
2020,04,24,03,40,1.80
2020,04,24,03,41,2.10
2020,04,24,03,42,0.30
2020,04,24,03,43,0.00
2020,04,24,03,44,0.00
2020,04,24,03,45,0.00
2020,04,24,03,46,0.00
2020,04,24,03,47,0.00
2020,04,24,03,48,0.10
2020,04,24,03,49,1.10
2020,04,24,03,50,1.30
2020,04,24,03,51,0.60
2020,04,24,03,52,0.00
2020,04,24,03,53,0.00
2020,04,24,03,54,0.10
2020,04,24,03,55,2.30
2020,04,24,03,56,1.60
2020,04,24,03,57,1.10
2020,04,24,03,58,2.00
2020,04,24,03,59,2.10
2020,04,24,04,00,2.10
2020,04,24,04,01,2.60
2020,04,24,04,02,1.50
2020,04,24,04,03,1.50
2020,04,24,04,04,2.10
2020,04,24,04,05,2.50
2020,04,24,04,06,0.70
2020,04,24,04,07,0.80
2020,04,24,04,08,0.10
2020,04,24,04,09,0.00
2020,04,24,04,10,0.10
2020,04,24,04,11,0.00
2020,04,24,04,12,0.30
2020,04,24,04,13,0.00
2020,04,24,04,14,1.00
2020,04,24,04,15,0.50
2020,04,24,04,16,0.00
2020,04,24,04,17,0.00
2020,04,24,04,18,0.00
2020,04,24,04,19,0.00
2020,04,24,04,20,0.00
2020,04,24,04,21,0.00
2020,04,24,04,22,0.20
2020,04,24,04,23,0.00
2020,04,24,04,24,0.00
2020,04,24,04,25,0.00
2020,04,24,04,26,0.00
2020,04,24,04,27,0.00
2020,04,24,04,28,0.00
2020,04,24,04,29,0.00
2020,04,24,04,30,0.00
2020,04,24,04,31,0.00
2020,04,24,04,32,0.20
2020,04,24,04,33,0.20
2020,04,24,04,34,0.00
2020,04,24,04,35,0.00
2020,04,24,04,36,0.00
2020,04,24,04,37,0.00
2020,04,24,04,38,0.00
2020,04,24,04,39,0.00
2020,04,24,04,40,0.00
2020,04,24,04,41,0.00
2020,04,24,04,42,0.00
2020,04,24,04,43,0.00
2020,04,24,04,44,0.00
2020,04,24,04,45,0.00
2020,04,24,04,46,0.20
2020,04,24,04,47,0.00
2020,04,24,04,48,0.00
2020,04,24,04,49,0.80
2020,04,24,04,50,2.80
2020,04,24,04,51,4.70
2020,04,24,04,52,2.00
2020,04,24,04,53,2.60
2020,04,24,04,54,0.40
2020,04,24,04,55,0.20
2020,04,24,04,56,0.00
2020,04,24,04,57,0.00
2020,04,24,04,58,0.00
2020,04,24,04,59,1.40
2020,04,24,05,00,4.30
2020,04,24,05,01,5.60
2020,04,24,05,02,8.50
2020,04,24,05,03,8.30
2020,04,24,05,04,6.60
2020,04,24,05,05,5.20
2020,04,24,05,06,2.90
2020,04,24,05,07,1.60
2020,04,24,05,08,0.50
2020,04,24,05,09,0.40
2020,04,24,05,10,0.70
2020,04,24,05,11,0.60
2020,04,24,05,12,0.00
2020,04,24,05,13,0.00
2020,04,24,05,14,0.00
2020,04,24,05,15,0.00
2020,04,24,05,16,0.00
2020,04,24,05,17,0.00
2020,04,24,05,18,0.00
2020,04,24,05,19,0.00
2020,04,24,05,20,0.00
2020,04,24,05,21,0.00
2020,04,24,05,22,0.00
2020,04,24,05,23,0.00
2020,04,24,05,24,0.00
2020,04,24,05,25,0.00
2020,04,24,05,26,0.00
2020,04,24,05,27,0.00
2020,04,24,05,28,0.00
2020,04,24,05,29,0.00
2020,04,24,05,30,0.00
2020,04,24,05,31,0.00
2020,04,24,05,32,0.00
2020,04,24,05,33,0.00
2020,04,24,05,34,0.00
2020,04,24,05,35,0.00
2020,04,24,05,36,0.00
2020,04,24,05,37,0.00
2020,04,24,05,38,0.00
2020,04,24,05,39,0.00
2020,04,24,05,40,0.00
2020,04,24,05,41,0.00
2020,04,24,05,42,0.00
2020,04,24,05,43,0.00
2020,04,24,05,44,0.00
2020,04,24,05,45,0.00
2020,04,24,05,46,0.00
2020,04,24,05,47,0.00
2020,04,24,05,48,1.10
2020,04,24,05,49,1.80
2020,04,24,05,50,1.10
2020,04,24,05,51,0.00
2020,04,24,05,52,0.00
2020,04,24,05,53,0.00
2020,04,24,05,54,0.00
2020,04,24,05,55,0.00
2020,04,24,05,56,0.00
2020,04,24,05,57,0.00
2020,04,24,05,58,0.00
2020,04,24,05,59,0.00
2020,04,24,06,00,0.00
2020,04,24,06,01,0.00
2020,04,24,06,02,0.10
2020,04,24,06,03,1.80
2020,04,24,06,04,0.70
2020,04,24,06,05,0.00
2020,04,24,06,06,0.00
2020,04,24,06,07,0.00
2020,04,24,06,08,0.00
2020,04,24,06,09,0.00
2020,04,24,06,10,0.00
2020,04,24,06,11,0.00
2020,04,24,06,12,0.00
2020,04,24,06,13,0.00
2020,04,24,06,14,0.00
2020,04,24,06,15,0.00
2020,04,24,06,16,0.00
2020,04,24,06,17,0.30
2020,04,24,06,18,0.70
2020,04,24,06,19,1.10
2020,04,24,06,20,1.50
2020,04,24,06,21,0.90
2020,04,24,06,22,0.00
2020,04,24,06,23,0.00
2020,04,24,06,24,0.00
2020,04,24,06,25,0.00
2020,04,24,06,26,0.00
2020,04,24,06,27,0.00
2020,04,24,06,28,0.00
2020,04,24,06,29,1.80
2020,04,24,06,30,1.10
2020,04,24,06,31,0.80
2020,04,24,06,32,1.90
2020,04,24,06,33,0.90
2020,04,24,06,34,0.20
2020,04,24,06,35,1.80
2020,04,24,06,36,2.60
2020,04,24,06,37,1.30
2020,04,24,06,38,1.90
2020,04,24,06,39,0.60
2020,04,24,06,40,1.50
2020,04,24,06,41,1.80
2020,04,24,06,42,2.80
2020,04,24,06,43,1.90
2020,04,24,06,44,0.20
2020,04,24,06,45,0.30
2020,04,24,06,46,0.00
2020,04,24,06,47,0.00
2020,04,24,06,48,0.00
2020,04,24,06,49,0.20
2020,04,24,06,50,1.90
2020,04,24,06,51,4.00
2020,04,24,06,52,5.10
2020,04,24,06,53,6.00
2020,04,24,06,54,1.50
2020,04,24,06,55,0.30
2020,04,24,06,56,2.70
2020,04,24,06,57,1.40
2020,04,24,06,58,0.70
2020,04,24,06,59,0.00
2020,04,24,07,00,0.00
2020,04,24,07,01,0.00
2020,04,24,07,02,0.20
2020,04,24,07,03,2.50
2020,04,24,07,04,2.20
2020,04,24,07,05,2.30
2020,04,24,07,06,1.20
2020,04,24,07,07,0.50
2020,04,24,07,08,0.30
2020,04,24,07,09,0.00
2020,04,24,07,10,0.00
2020,04,24,07,11,0.50
2020,04,24,07,12,2.10
2020,04,24,07,13,3.40
2020,04,24,07,14,3.10
2020,04,24,07,15,2.20
2020,04,24,07,16,1.80
2020,04,24,07,17,2.50
2020,04,24,07,18,4.40
2020,04,24,07,19,2.10
2020,04,24,07,20,2.50
2020,04,24,07,21,2.00
2020,04,24,07,22,1.00
2020,04,24,07,23,0.60
2020,04,24,07,24,2.00
2020,04,24,07,25,0.60
2020,04,24,07,26,2.30
2020,04,24,07,27,2.50
2020,04,24,07,28,2.20
2020,04,24,07,29,1.80
2020,04,24,07,30,0.70
2020,04,24,07,31,2.10
2020,04,24,07,32,4.40
2020,04,24,07,33,4.80
2020,04,24,07,34,3.30
2020,04,24,07,35,2.30
2020,04,24,07,36,2.80
2020,04,24,07,37,2.30
2020,04,24,07,38,0.30
2020,04,24,07,39,0.60
2020,04,24,07,40,2.80
2020,04,24,07,41,2.50
2020,04,24,07,42,4.50
2020,04,24,07,43,6.80
2020,04,24,07,44,5.30
2020,04,24,07,45,3.90
2020,04,24,07,46,5.70
2020,04,24,07,47,3.20
2020,04,24,07,48,2.90
2020,04,24,07,49,3.90
2020,04,24,07,50,3.00
2020,04,24,07,51,1.30
2020,04,24,07,52,0.20
2020,04,24,07,53,0.20
2020,04,24,07,54,1.20
2020,04,24,07,55,0.10
2020,04,24,07,56,0.00
2020,04,24,07,57,0.00
2020,04,24,07,58,0.70
2020,04,24,07,59,0.00
2020,04,24,08,00,0.90
2020,04,24,08,01,1.10
2020,04,24,08,02,2.60
2020,04,24,08,03,1.70
2020,04,24,08,04,0.60
2020,04,24,08,05,1.00
2020,04,24,08,06,3.00
2020,04,24,08,07,3.90
2020,04,24,08,08,2.90
2020,04,24,08,09,2.60
2020,04,24,08,10,1.10
2020,04,24,08,11,0.10
2020,04,24,08,12,1.00
2020,04,24,08,13,0.10
2020,04,24,08,14,0.00
2020,04,24,08,15,0.00
2020,04,24,08,16,0.00
2020,04,24,08,17,0.00
2020,04,24,08,18,0.00
2020,04,24,08,19,0.00
2020,04,24,08,20,0.00
2020,04,24,08,21,0.00
2020,04,24,08,22,0.00
2020,04,24,08,23,0.00
2020,04,24,08,24,0.00
2020,04,24,08,25,0.00
2020,04,24,08,26,0.00
2020,04,24,08,27,0.00
2020,04,24,08,28,0.00
2020,04,24,08,29,1.90
2020,04,24,08,30,2.90
2020,04,24,08,31,2.20
2020,04,24,08,32,0.60
2020,04,24,08,33,1.50
2020,04,24,08,34,1.90
2020,04,24,08,35,1.40
2020,04,24,08,36,1.30
2020,04,24,08,37,4.80
2020,04,24,08,38,2.10
2020,04,24,08,39,0.00
2020,04,24,08,40,0.20
2020,04,24,08,41,0.20
2020,04,24,08,42,0.30
2020,04,24,08,43,2.80
2020,04,24,08,44,2.90
2020,04,24,08,45,1.10
2020,04,24,08,46,7.00
2020,04,24,08,47,2.10
2020,04,24,08,48,5.40
2020,04,24,08,49,5.10
2020,04,24,08,50,6.80
2020,04,24,08,51,4.30
2020,04,24,08,52,5.00
2020,04,24,08,53,4.40
2020,04,24,08,54,3.90
2020,04,24,08,55,2.80
2020,04,24,08,56,3.50
2020,04,24,08,57,4.20
2020,04,24,08,58,2.20
2020,04,24,08,59,5.20
2020,04,24,09,00,2.50
2020,04,24,09,01,4.60
2020,04,24,09,02,2.80
2020,04,24,09,03,2.30
2020,04,24,09,04,5.30
2020,04,24,09,05,4.20
2020,04,24,09,06,4.00
2020,04,24,09,07,5.10
2020,04,24,09,08,3.40
2020,04,24,09,09,3.80
2020,04,24,09,10,1.60
2020,04,24,09,11,5.00
2020,04,24,09,12,3.20
2020,04,24,09,13,3.40
2020,04,24,09,14,3.50
2020,04,24,09,15,1.30
2020,04,24,09,16,0.90
2020,04,24,09,17,6.60
2020,04,24,09,18,3.60
2020,04,24,09,19,2.60
2020,04,24,09,20,5.20
2020,04,24,09,21,1.10
2020,04,24,09,22,0.70
2020,04,24,09,23,1.60
2020,04,24,09,24,4.50
2020,04,24,09,25,5.20
2020,04,24,09,26,5.20
2020,04,24,09,27,5.60
2020,04,24,09,28,5.20
2020,04,24,09,29,3.50
2020,04,24,09,30,6.90
2020,04,24,09,31,3.70
2020,04,24,09,32,3.10
2020,04,24,09,33,3.90
2020,04,24,09,34,7.10
2020,04,24,09,35,1.80
2020,04,24,09,36,1.90
2020,04,24,09,37,6.30
2020,04,24,09,38,5.40
2020,04,24,09,39,2.80
2020,04,24,09,40,3.00
2020,04,24,09,41,3.30
2020,04,24,09,42,4.20
2020,04,24,09,43,2.80
2020,04,24,09,44,2.90
2020,04,24,09,45,3.60
2020,04,24,09,46,7.60
2020,04,24,09,47,6.60
2020,04,24,09,48,3.90
2020,04,24,09,49,3.30
2020,04,24,09,50,6.40
2020,04,24,09,51,3.50
2020,04,24,09,52,4.10
2020,04,24,09,53,5.40
2020,04,24,09,54,5.10
2020,04,24,09,55,9.00
2020,04,24,09,56,6.80
2020,04,24,09,57,6.80
2020,04,24,09,58,8.70
2020,04,24,09,59,9.00
2020,04,24,10,00,9.00
2020,04,24,10,01,9.00
2020,04,24,10,02,8.90
2020,04,24,10,03,8.00
2020,04,24,10,04,9.70
2020,04,24,10,05,9.30
2020,04,24,10,06,10.70
2020,04,24,10,07,9.90
2020,04,24,10,08,9.00
2020,04,24,10,09,6.00
2020,04,24,10,10,4.40
2020,04,24,10,11,7.70
2020,04,24,10,12,5.00
2020,04,24,10,13,7.60
2020,04,24,10,14,6.60
2020,04,24,10,15,3.10
2020,04,24,10,16,5.20
2020,04,24,10,17,9.00
2020,04,24,10,18,7.80
2020,04,24,10,19,5.80
2020,04,24,10,20,8.90
2020,04,24,10,21,8.20
2020,04,24,10,22,5.80
2020,04,24,10,23,3.70
2020,04,24,10,24,6.40
2020,04,24,10,25,7.70
2020,04,24,10,26,6.00
2020,04,24,10,27,7.20
2020,04,24,10,28,4.40
2020,04,24,10,29,5.80
2020,04,24,10,30,4.00
2020,04,24,10,31,4.60
2020,04,24,10,32,1.00
2020,04,24,10,33,3.80
2020,04,24,10,34,5.70
2020,04,24,10,35,6.80
2020,04,24,10,36,5.10
2020,04,24,10,37,7.40
2020,04,24,10,38,5.80
2020,04,24,10,39,9.70
2020,04,24,10,40,9.90
2020,04,24,10,41,7.30
2020,04,24,10,42,10.50
2020,04,24,10,43,6.80
2020,04,24,10,44,8.40
2020,04,24,10,45,10.90
2020,04,24,10,46,8.20
2020,04,24,10,47,8.50
2020,04,24,10,48,7.00
2020,04,24,10,49,6.10
2020,04,24,10,50,6.60
2020,04,24,10,51,6.00
2020,04,24,10,52,7.80
2020,04,24,10,53,7.70
2020,04,24,10,54,8.50
2020,04,24,10,55,7.30
2020,04,24,10,56,6.00
2020,04,24,10,57,8.40
2020,04,24,10,58,9.90
2020,04,24,10,59,7.40
2020,04,24,11,00,6.60
2020,04,24,11,01,10.90
2020,04,24,11,02,9.30
2020,04,24,11,03,7.90
2020,04,24,11,04,5.50
2020,04,24,11,05,6.40
2020,04,24,11,06,8.70
2020,04,24,11,07,9.50
2020,04,24,11,08,10.50
2020,04,24,11,09,5.50
2020,04,24,11,10,8.90
2020,04,24,11,11,7.70
2020,04,24,11,12,9.90
2020,04,24,11,13,6.10
2020,04,24,11,14,6.70
2020,04,24,11,15,7.20
2020,04,24,11,16,4.30
2020,04,24,11,17,6.10
2020,04,24,11,18,5.50
2020,04,24,11,19,8.30
2020,04,24,11,20,6.80
2020,04,24,11,21,8.10
2020,04,24,11,22,7.70
2020,04,24,11,23,9.40
2020,04,24,11,24,13.30
2020,04,24,11,25,9.80
2020,04,24,11,26,6.50
2020,04,24,11,27,7.20
2020,04,24,11,28,5.50
2020,04,24,11,29,9.30
2020,04,24,11,30,8.90
2020,04,24,11,31,9.70
2020,04,24,11,32,7.20
2020,04,24,11,33,7.60
2020,04,24,11,34,7.80
2020,04,24,11,35,9.20
2020,04,24,11,36,9.70
2020,04,24,11,37,8.70
2020,04,24,11,38,9.40
2020,04,24,11,39,9.70
2020,04,24,11,40,8.60
2020,04,24,11,41,9.70
2020,04,24,11,42,8.80
2020,04,24,11,43,8.40
2020,04,24,11,44,7.90
2020,04,24,11,45,11.30
2020,04,24,11,46,8.30
2020,04,24,11,47,7.10
2020,04,24,11,48,7.10
2020,04,24,11,49,6.90
2020,04,24,11,50,6.70
2020,04,24,11,51,8.10
2020,04,24,11,52,5.40
2020,04,24,11,53,7.20
2020,04,24,11,54,8.90
2020,04,24,11,55,7.40
2020,04,24,11,56,8.90
2020,04,24,11,57,8.60
2020,04,24,11,58,10.00
2020,04,24,11,59,6.40
2020,04,24,12,00,5.40
2020,04,24,12,01,5.20
2020,04,24,12,02,6.30
2020,04,24,12,03,9.20
2020,04,24,12,04,7.20
2020,04,24,12,05,10.90
2020,04,24,12,06,8.10
2020,04,24,12,07,8.20
2020,04,24,12,08,11.60
2020,04,24,12,09,7.90
2020,04,24,12,10,13.60
2020,04,24,12,11,4.60
2020,04,24,12,12,7.10
2020,04,24,12,13,9.20
2020,04,24,12,14,7.20
2020,04,24,12,15,5.80
2020,04,24,12,16,6.90
2020,04,24,12,17,7.60
2020,04,24,12,18,7.80
2020,04,24,12,19,9.20
2020,04,24,12,20,5.80
2020,04,24,12,21,7.40
2020,04,24,12,22,8.50
2020,04,24,12,23,5.50
2020,04,24,12,24,4.90
2020,04,24,12,25,5.10
2020,04,24,12,26,5.50
2020,04,24,12,27,4.60
2020,04,24,12,28,7.60
2020,04,24,12,29,7.90
2020,04,24,12,30,7.10
2020,04,24,12,31,6.30
2020,04,24,12,32,7.20
2020,04,24,12,33,3.50
2020,04,24,12,34,4.30
2020,04,24,12,35,6.40
2020,04,24,12,36,7.80
2020,04,24,12,37,4.10
2020,04,24,12,38,5.30
2020,04,24,12,39,3.80
2020,04,24,12,40,5.10
2020,04,24,12,41,5.10
2020,04,24,12,42,3.90
2020,04,24,12,43,4.20
2020,04,24,12,44,8.90
2020,04,24,12,45,3.90
2020,04,24,12,46,6.10
2020,04,24,12,47,4.90
2020,04,24,12,48,6.30
2020,04,24,12,49,6.80
2020,04,24,12,50,6.80
2020,04,24,12,51,3.80
2020,04,24,12,52,5.80
2020,04,24,12,53,7.50
2020,04,24,12,54,7.50
2020,04,24,12,55,5.90
2020,04,24,12,56,5.80
2020,04,24,12,57,3.30
2020,04,24,12,58,3.80
2020,04,24,12,59,4.60
2020,04,24,13,00,8.80
2020,04,24,13,01,9.40
2020,04,24,13,02,7.70
2020,04,24,13,03,6.90
2020,04,24,13,04,6.60
2020,04,24,13,05,6.60
2020,04,24,13,06,7.90
2020,04,24,13,07,7.90
2020,04,24,13,08,4.80
2020,04,24,13,09,3.90
2020,04,24,13,10,3.80
2020,04,24,13,11,5.70
2020,04,24,13,12,7.70
2020,04,24,13,13,6.40
2020,04,24,13,14,5.80
2020,04,24,13,15,6.00
2020,04,24,13,16,5.10
2020,04,24,13,17,8.40
2020,04,24,13,18,5.80
2020,04,24,13,19,6.20
2020,04,24,13,20,5.90
2020,04,24,13,21,5.20
2020,04,24,13,22,3.90
2020,04,24,13,23,5.90
2020,04,24,13,24,4.30
2020,04,24,13,25,4.30
2020,04,24,13,26,2.50
2020,04,24,13,27,1.50
2020,04,24,13,28,7.20
2020,04,24,13,29,5.90
2020,04,24,13,30,5.10
2020,04,24,13,31,7.20
2020,04,24,13,32,7.40
2020,04,24,13,33,4.30
2020,04,24,13,34,7.60
2020,04,24,13,35,6.70
2020,04,24,13,36,7.20
2020,04,24,13,37,8.70
2020,04,24,13,38,9.30
2020,04,24,13,39,6.90
2020,04,24,13,40,7.60
2020,04,24,13,41,6.70
2020,04,24,13,42,5.20
2020,04,24,13,43,7.60
2020,04,24,13,44,5.30
2020,04,24,13,45,6.00
2020,04,24,13,46,6.50
2020,04,24,13,47,8.00
2020,04,24,13,48,7.30
2020,04,24,13,49,5.80
2020,04,24,13,50,6.40
2020,04,24,13,51,3.90
2020,04,24,13,52,6.40
2020,04,24,13,53,4.60
2020,04,24,13,54,3.90
2020,04,24,13,55,4.80
2020,04,24,13,56,5.30
2020,04,24,13,57,9.70
2020,04,24,13,58,7.00
2020,04,24,13,59,6.30
2020,04,24,14,00,8.00
2020,04,24,14,01,5.10
2020,04,24,14,02,1.80
2020,04,24,14,03,7.90
2020,04,24,14,04,10.10
2020,04,24,14,05,7.60
2020,04,24,14,06,6.90
2020,04,24,14,07,6.10
2020,04,24,14,08,7.80
2020,04,24,14,09,5.60
2020,04,24,14,10,10.50
2020,04,24,14,11,8.00
2020,04,24,14,12,8.30
2020,04,24,14,13,7.40
2020,04,24,14,14,5.10
2020,04,24,14,15,8.50
2020,04,24,14,16,4.60
2020,04,24,14,17,3.40
2020,04,24,14,18,6.20
2020,04,24,14,19,6.40
2020,04,24,14,20,5.00
2020,04,24,14,21,5.20
2020,04,24,14,22,4.30
2020,04,24,14,23,7.20
2020,04,24,14,24,6.40
2020,04,24,14,25,4.90
2020,04,24,14,26,3.30
2020,04,24,14,27,4.50
2020,04,24,14,28,6.40
2020,04,24,14,29,4.20
2020,04,24,14,30,2.50
2020,04,24,14,31,5.60
2020,04,24,14,32,7.10
2020,04,24,14,33,6.70
2020,04,24,14,34,8.10
2020,04,24,14,35,8.40
2020,04,24,14,36,4.70
2020,04,24,14,37,4.10
2020,04,24,14,38,8.10
2020,04,24,14,39,5.60
2020,04,24,14,40,4.30
2020,04,24,14,41,4.80
2020,04,24,14,42,7.50
2020,04,24,14,43,5.60
2020,04,24,14,44,5.10
2020,04,24,14,45,5.80
2020,04,24,14,46,6.20
2020,04,24,14,47,4.90
2020,04,24,14,48,4.20
2020,04,24,14,49,4.40
2020,04,24,14,50,5.40
2020,04,24,14,51,2.90
2020,04,24,14,52,4.30
2020,04,24,14,53,4.10
2020,04,24,14,54,4.40
2020,04,24,14,55,7.50
2020,04,24,14,56,4.70
2020,04,24,14,57,4.30
2020,04,24,14,58,5.50
2020,04,24,14,59,4.30
2020,04,24,15,00,4.30
2020,04,24,15,01,9.00
2020,04,24,15,02,6.00
2020,04,24,15,03,4.80
2020,04,24,15,04,4.30
2020,04,24,15,05,3.00
2020,04,24,15,06,6.70
2020,04,24,15,07,7.20
2020,04,24,15,08,6.80
2020,04,24,15,09,3.50
2020,04,24,15,10,3.20
2020,04,24,15,11,3.10
2020,04,24,15,12,3.70
2020,04,24,15,13,4.30
2020,04,24,15,14,5.70
2020,04,24,15,15,3.10
2020,04,24,15,16,6.60
2020,04,24,15,17,5.20
2020,04,24,15,18,3.70
2020,04,24,15,19,3.70
2020,04,24,15,20,5.60
2020,04,24,15,21,3.90
2020,04,24,15,22,5.20
2020,04,24,15,23,4.80
2020,04,24,15,24,3.50
2020,04,24,15,25,4.30
2020,04,24,15,26,3.40
2020,04,24,15,27,4.70
2020,04,24,15,28,5.10
2020,04,24,15,29,1.80
2020,04,24,15,30,3.00
2020,04,24,15,31,1.70
2020,04,24,15,32,4.20
2020,04,24,15,33,3.00
2020,04,24,15,34,5.20
2020,04,24,15,35,3.20
2020,04,24,15,36,2.70
2020,04,24,15,37,3.30
2020,04,24,15,38,5.40
2020,04,24,15,39,2.40
2020,04,24,15,40,2.90
2020,04,24,15,41,2.70
2020,04,24,15,42,1.50
2020,04,24,15,43,2.30
2020,04,24,15,44,3.50
2020,04,24,15,45,1.60
2020,04,24,15,46,6.00
2020,04,24,15,47,3.80
2020,04,24,15,48,5.80
2020,04,24,15,49,5.10
2020,04,24,15,50,4.70
2020,04,24,15,51,5.10
2020,04,24,15,52,2.60
2020,04,24,15,53,4.00
2020,04,24,15,54,3.30
2020,04,24,15,55,2.30
2020,04,24,15,56,4.20
2020,04,24,15,57,3.50
2020,04,24,15,58,2.80
2020,04,24,15,59,3.20
2020,04,24,16,00,2.90
2020,04,24,16,01,4.90
2020,04,24,16,02,4.70
2020,04,24,16,03,3.50
2020,04,24,16,04,2.60
2020,04,24,16,05,2.70
2020,04,24,16,06,3.30
2020,04,24,16,07,4.60
2020,04,24,16,08,2.60
2020,04,24,16,09,5.10
2020,04,24,16,10,4.00
2020,04,24,16,11,3.30
2020,04,24,16,12,3.80
2020,04,24,16,13,5.00
2020,04,24,16,14,5.60
2020,04,24,16,15,4.30
2020,04,24,16,16,6.40
2020,04,24,16,17,5.40
2020,04,24,16,18,3.50
2020,04,24,16,19,6.50
2020,04,24,16,20,6.00
2020,04,24,16,21,5.70
2020,04,24,16,22,5.30
2020,04,24,16,23,5.60
2020,04,24,16,24,5.30
2020,04,24,16,25,5.20
2020,04,24,16,26,5.10
2020,04,24,16,27,6.40
2020,04,24,16,28,4.60
2020,04,24,16,29,5.00
2020,04,24,16,30,4.90
2020,04,24,16,31,4.30
2020,04,24,16,32,5.40
2020,04,24,16,33,5.20
2020,04,24,16,34,4.00
2020,04,24,16,35,2.80
2020,04,24,16,36,3.50
2020,04,24,16,37,5.30
2020,04,24,16,38,4.80
2020,04,24,16,39,5.90
2020,04,24,16,40,3.80
2020,04,24,16,41,5.00
2020,04,24,16,42,4.00
2020,04,24,16,43,3.10
2020,04,24,16,44,3.10
2020,04,24,16,45,5.70
2020,04,24,16,46,3.60
2020,04,24,16,47,1.40
2020,04,24,16,48,4.70
2020,04,24,16,49,5.50
2020,04,24,16,50,7.80
2020,04,24,16,51,5.90
2020,04,24,16,52,3.20
2020,04,24,16,53,4.40
2020,04,24,16,54,6.10
2020,04,24,16,55,4.30
2020,04,24,16,56,3.00
2020,04,24,16,57,5.00
2020,04,24,16,58,3.40
2020,04,24,16,59,7.60
2020,04,24,17,00,5.80
2020,04,24,17,01,7.30
2020,04,24,17,02,4.30
2020,04,24,17,03,4.50
2020,04,24,17,04,4.70
2020,04,24,17,05,5.70
2020,04,24,17,06,4.50
2020,04,24,17,07,4.70
2020,04,24,17,08,6.60
2020,04,24,17,09,6.10
2020,04,24,17,10,5.70
2020,04,24,17,11,2.60
2020,04,24,17,12,4.90
2020,04,24,17,13,6.00
2020,04,24,17,14,2.50
2020,04,24,17,15,3.70
2020,04,24,17,16,4.20
2020,04,24,17,17,4.70
2020,04,24,17,18,5.40
2020,04,24,17,19,3.50
2020,04,24,17,20,6.00
2020,04,24,17,21,6.20
2020,04,24,17,22,6.40
2020,04,24,17,23,4.10
2020,04,24,17,24,6.10
2020,04,24,17,25,5.30
2020,04,24,17,26,7.30
2020,04,24,17,27,6.10
2020,04,24,17,28,7.60
2020,04,24,17,29,7.10
2020,04,24,17,30,6.80
2020,04,24,17,31,6.00
2020,04,24,17,32,6.70
2020,04,24,17,33,6.80
2020,04,24,17,34,6.80
2020,04,24,17,35,6.90
2020,04,24,17,36,7.40
2020,04,24,17,37,6.30
2020,04,24,17,38,7.40
2020,04,24,17,39,5.60
2020,04,24,17,40,7.40
2020,04,24,17,41,6.10
2020,04,24,17,42,6.00
2020,04,24,17,43,7.60
2020,04,24,17,44,7.10
2020,04,24,17,45,7.00
2020,04,24,17,46,8.20
2020,04,24,17,47,5.10
2020,04,24,17,48,4.30
2020,04,24,17,49,8.10
2020,04,24,17,50,6.30
2020,04,24,17,51,8.00
2020,04,24,17,52,7.10
2020,04,24,17,53,6.80
2020,04,24,17,54,6.20
2020,04,24,17,55,6.90
2020,04,24,17,56,7.90
2020,04,24,17,57,7.50
2020,04,24,17,58,5.00
2020,04,24,17,59,7.90
2020,04,24,18,00,6.00
2020,04,24,18,01,6.70
2020,04,24,18,02,4.80
2020,04,24,18,03,3.90
2020,04,24,18,04,6.20
2020,04,24,18,05,5.90
2020,04,24,18,06,7.10